RYR5U LIRN-LIMC

Flight info

Callsign RYR5U
Flight time 1h 23m
Altitude 34000
Route VEXUV DCT PNZ DCT RIFFI DCT ELVIN DCT TORLI DCT GILIO DCT KARDU DCT IRBAK DCT KALMO DCT MEBUR
Aircraft B738/M-SDGIJ1LRWY/SB1

Departure

Time 2026-05-05 18:32
Airport Naples International Airport (LIRN)

Arrival

Time 2026-05-05 19:55
Airport Milan Malpensa International Airport (LIMC)
Time Latitude Longitude Altitude Speed Heading
2026-05-05 17:12 40.87888 14.28229 294 ft 0 kts 186°
2026-05-05 18:15 40.87896 14.28230 294 ft 2 kts 186°
2026-05-05 18:15 40.87910 14.28234 293 ft 2 kts 204°
2026-05-05 18:15 40.87922 14.28243 293 ft 2 kts 216°
2026-05-05 18:16 40.87933 14.28256 293 ft 2 kts 230°
2026-05-05 18:16 40.87941 14.28272 293 ft 2 kts 244°
2026-05-05 18:16 40.87946 14.28289 293 ft 2 kts 257°
2026-05-05 18:16 40.87948 14.28307 293 ft 2 kts 270°
2026-05-05 18:17 40.87947 14.28317 293 ft 1 kts 277°
2026-05-05 18:17 40.87947 14.28323 293 ft 0 kts 278°
2026-05-05 18:21 40.87951 14.28282 293 ft 10 kts 277°
2026-05-05 18:21 40.87960 14.28199 291 ft 5 kts 277°
2026-05-05 18:22 40.87968 14.28152 291 ft 5 kts 295°
2026-05-05 18:22 40.88000 14.28128 289 ft 7 kts
2026-05-05 18:22 40.88049 14.28195 288 ft 12 kts 58°
2026-05-05 18:22 40.88067 14.28286 289 ft 10 kts 98°
2026-05-05 18:23 40.88060 14.28361 290 ft 8 kts 97°
2026-05-05 18:23 40.88052 14.28447 291 ft 11 kts 97°
2026-05-05 18:23 40.88041 14.28549 290 ft 14 kts 98°
2026-05-05 18:23 40.88083 14.28671 286 ft 19 kts 52°
2026-05-05 18:24 40.88171 14.28824 280 ft 25 kts 52°
2026-05-05 18:24 40.88280 14.29013 270 ft 29 kts 54°
2026-05-05 18:24 40.88406 14.29230 261 ft 29 kts 53°
2026-05-05 18:24 40.88518 14.29423 257 ft 30 kts 53°
2026-05-05 18:25 40.88604 14.29573 254 ft 19 kts 53°
2026-05-05 18:25 40.88658 14.29666 251 ft 20 kts 52°
2026-05-05 18:25 40.88764 14.29852 247 ft 21 kts 51°
2026-05-05 18:25 40.88853 14.30005 240 ft 23 kts 53°
2026-05-05 18:26 40.88949 14.30171 232 ft 26 kts 52°
2026-05-05 18:26 40.89011 14.30278 229 ft 15 kts 52°
2026-05-05 18:26 40.89042 14.30333 227 ft 0 kts 53°
2026-05-05 18:26 40.89050 14.30345 227 ft 6 kts 53°
2026-05-05 18:27 40.89095 14.30421 223 ft 13 kts 46°
2026-05-05 18:27 40.89120 14.30447 222 ft 0 kts 27°
2026-05-05 18:30 40.89132 14.30453 222 ft 8 kts 16°
2026-05-05 18:30 40.89196 14.30432 223 ft 5 kts 327°
2026-05-05 18:30 40.89215 14.30413 223 ft 2 kts 312°
2026-05-05 18:30 40.89219 14.30392 224 ft 3 kts 255°
2026-05-05 18:31 40.89207 14.30361 224 ft 5 kts 240°
2026-05-05 18:31 40.89183 14.30307 225 ft 12 kts 239°
2026-05-05 18:31 40.89060 14.30048 235 ft 63 kts 238°
2026-05-05 18:31 40.88754 14.29402 254 ft 120 kts 238°
2026-05-05 18:32 40.88263 14.28352 287 ft 169 kts 237°
2026-05-05 18:32 40.87645 14.27063 861 ft 173 kts 234°
2026-05-05 18:32 40.86914 14.26024 1592 ft 171 kts 214°
2026-05-05 18:32 40.85875 14.25539 2024 ft 186 kts 181°
2026-05-05 18:33 40.84718 14.25753 2549 ft 197 kts 167°
2026-05-05 18:33 40.83492 14.26134 3004 ft 214 kts 168°
2026-05-05 18:33 40.82075 14.26509 3361 ft 239 kts 170°
2026-05-05 18:33 40.80580 14.26832 4048 ft 247 kts 172°
2026-05-05 18:34 40.79008 14.27114 4690 ft 257 kts 173°
2026-05-05 18:34 40.77392 14.27378 5247 ft 270 kts 174°
2026-05-05 18:34 40.75655 14.27658 5951 ft 277 kts 174°
2026-05-05 18:34 40.73927 14.27959 6782 ft 277 kts 173°
2026-05-05 18:35 40.72200 14.28278 7521 ft 280 kts 176°
2026-05-05 18:35 40.70358 14.28275 7871 ft 295 kts 190°
2026-05-05 18:35 40.68624 14.27587 8728 ft 288 kts 208°
2026-05-05 18:35 40.67139 14.26179 9496 ft 284 kts 229°
2026-05-05 18:36 40.66012 14.24347 10318 ft 279 kts 236°
2026-05-05 18:36 40.64980 14.22474 10979 ft 281 kts 235°
2026-05-05 18:36 40.63802 14.20557 11410 ft 294 kts 229°
2026-05-05 18:36 40.62495 14.18811 12141 ft 293 kts 225°
2026-05-05 18:37 40.61153 14.17209 12730 ft 297 kts 223°
2026-05-05 18:37 40.59730 14.15593 13392 ft 299 kts 223°
2026-05-05 18:37 40.58228 14.13913 14087 ft 300 kts 223°
2026-05-05 18:37 40.56671 14.12172 14752 ft 303 kts 223°
2026-05-05 18:38 40.55113 14.10419 15453 ft 303 kts 223°
2026-05-05 18:38 40.53540 14.08637 16076 ft 306 kts 223°
2026-05-05 18:38 40.52010 14.06863 16730 ft 306 kts 226°
2026-05-05 18:38 40.50624 14.04839 17321 ft 307 kts 237°
2026-05-05 18:39 40.49627 14.02585 17890 ft 307 kts 246°
2026-05-05 18:39 40.48880 14.00253 18460 ft 308 kts 250°
2026-05-05 18:39 40.48213 13.97873 18979 ft 310 kts 251°
2026-05-05 18:39 40.47546 13.95396 19530 ft 311 kts 252°
2026-05-05 18:40 40.46867 13.92901 20043 ft 314 kts 252°
2026-05-05 18:40 40.46190 13.90445 20557 ft 316 kts 251°
2026-05-05 18:40 40.45527 13.88068 21060 ft 316 kts 251°
2026-05-05 18:40 40.44886 13.85662 21503 ft 318 kts 254°
2026-05-05 18:41 40.44410 13.83147 21966 ft 319 kts 262°
2026-05-05 18:41 40.44242 13.80440 22467 ft 319 kts 271°
2026-05-05 18:41 40.44383 13.77804 22889 ft 321 kts 277°
2026-05-05 18:41 40.44750 13.75220 23267 ft 325 kts 282°
2026-05-05 18:42 40.45365 13.72603 23336 ft 340 kts 291°
2026-05-05 18:42 40.46381 13.69975 23457 ft 353 kts 299°
2026-05-05 18:42 40.47702 13.67441 23546 ft 367 kts 304°
2026-05-05 18:42 40.49190 13.64904 23647 ft 380 kts 306°
2026-05-05 18:43 40.50708 13.62444 23932 ft 386 kts 306°
2026-05-05 18:43 40.52304 13.59897 24427 ft 387 kts 307°
2026-05-05 18:43 40.53923 13.57312 24866 ft 390 kts 306°
2026-05-05 18:43 40.55513 13.54762 25286 ft 392 kts 306°
2026-05-05 18:44 40.57054 13.52274 25685 ft 395 kts 306°
2026-05-05 18:44 40.58607 13.49760 26112 ft 396 kts 306°
2026-05-05 18:44 40.60184 13.47193 26510 ft 398 kts 306°
2026-05-05 18:44 40.61755 13.44622 26919 ft 400 kts 306°
2026-05-05 18:45 40.63353 13.41996 27331 ft 401 kts 306°
2026-05-05 18:45 40.64940 13.39381 27687 ft 404 kts 306°
2026-05-05 18:45 40.66529 13.36760 28103 ft 404 kts 306°
2026-05-05 18:45 40.68126 13.34122 28450 ft 406 kts 305°
2026-05-05 18:46 40.69759 13.31423 28852 ft 408 kts 305°
2026-05-05 18:46 40.71350 13.28791 29188 ft 410 kts 305°
2026-05-05 18:46 40.72963 13.26118 29564 ft 411 kts 305°
2026-05-05 18:46 40.74600 13.23404 29887 ft 413 kts 305°
2026-05-05 18:47 40.76246 13.20670 30222 ft 415 kts 305°
2026-05-05 18:47 40.77980 13.17789 30602 ft 416 kts 304°
2026-05-05 18:47 40.79608 13.15083 31170 ft 412 kts 304°
2026-05-05 18:47 40.81269 13.12322 31696 ft 409 kts 304°
2026-05-05 18:48 40.82917 13.09581 32170 ft 407 kts 304°
2026-05-05 18:48 40.84537 13.06883 32568 ft 406 kts 304°
2026-05-05 18:48 40.86149 13.04194 32947 ft 405 kts 304°
2026-05-05 18:48 40.87770 13.01484 33292 ft 405 kts 304°
2026-05-05 18:49 40.89354 12.98836 33685 ft 404 kts 304°
2026-05-05 18:49 40.90978 12.96140 34037 ft 403 kts 305°
2026-05-05 18:49 40.94448 12.91066 34049 ft 405 kts 309°
2026-05-05 18:50 40.98116 12.86170 34046 ft 405 kts 310°
2026-05-05 18:50 41.01890 12.81157 34261 ft 413 kts 310°
2026-05-05 18:51 41.03780 12.78629 34688 ft 411 kts 310°
2026-05-05 18:51 41.05644 12.76129 35115 ft 409 kts 310°
2026-05-05 18:51 41.07484 12.73649 35455 ft 408 kts 309°
2026-05-05 18:51 41.09320 12.71163 35725 ft 408 kts 309°
2026-05-05 18:52 41.11216 12.68590 35987 ft 409 kts 309°
2026-05-05 18:52 41.13040 12.66107 36042 ft 411 kts 309°
2026-05-05 18:52 41.16634 12.61207 36043 ft 407 kts 309°
2026-05-05 18:53 41.20252 12.56265 36040 ft 407 kts 309°
2026-05-05 18:53 41.23866 12.51316 36039 ft 409 kts 309°
2026-05-05 18:54 41.27482 12.46363 36038 ft 407 kts 309°
2026-05-05 18:54 41.29303 12.43869 35901 ft 405 kts 309°
2026-05-05 18:54 41.31063 12.41454 36032 ft 406 kts 309°
2026-05-05 18:55 41.34685 12.36473 36041 ft 410 kts 309°
2026-05-05 18:55 41.38357 12.31418 36041 ft 408 kts 309°
2026-05-05 18:56 41.41985 12.26416 36041 ft 409 kts 308°
2026-05-05 18:56 41.45609 12.21410 36037 ft 411 kts 308°
2026-05-05 18:57 41.49227 12.16408 36035 ft 410 kts 308°
2026-05-05 18:57 41.52929 12.11272 36034 ft 409 kts 308°
2026-05-05 18:58 41.56515 12.06279 36033 ft 409 kts 308°
2026-05-05 18:58 41.60196 12.01142 36032 ft 411 kts 308°
2026-05-05 18:59 41.63791 11.96128 36030 ft 410 kts 308°
2026-05-05 18:59 41.67489 11.90966 36029 ft 410 kts 308°
2026-05-05 19:00 41.71079 11.85946 36029 ft 411 kts 308°
2026-05-05 19:00 41.74672 11.80914 36024 ft 410 kts 308°
2026-05-05 19:01 41.78277 11.75852 36019 ft 413 kts 308°
2026-05-05 19:01 41.81861 11.70814 36021 ft 409 kts 308°
2026-05-05 19:02 41.85574 11.65587 36014 ft 409 kts 308°
2026-05-05 19:02 41.89290 11.60342 36014 ft 410 kts 308°
2026-05-05 19:03 41.93029 11.55057 36016 ft 410 kts 308°
2026-05-05 19:03 41.96757 11.49775 36014 ft 411 kts 308°
2026-05-05 19:04 42.00443 11.44549 36014 ft 412 kts 307°
2026-05-05 19:04 42.04129 11.39308 36004 ft 410 kts 307°
2026-05-05 19:05 42.07777 11.34118 36005 ft 410 kts 307°
2026-05-05 19:05 42.11382 11.28975 36008 ft 410 kts 307°
2026-05-05 19:06 42.15026 11.23769 35999 ft 410 kts 307°
2026-05-05 19:06 42.18612 11.18639 35996 ft 410 kts 306°
2026-05-05 19:07 42.22231 11.13446 35997 ft 410 kts 307°
2026-05-05 19:07 42.25815 11.08299 35994 ft 411 kts 307°
2026-05-05 19:08 42.29498 11.02997 35986 ft 411 kts 306°
2026-05-05 19:08 42.33158 10.97733 35988 ft 412 kts 307°
2026-05-05 19:09 42.37176 10.92716 35990 ft 421 kts 316°
2026-05-05 19:09 42.41970 10.88795 35985 ft 429 kts 324°
2026-05-05 19:10 42.47030 10.85392 35981 ft 432 kts 327°
2026-05-05 19:10 42.52141 10.82075 35980 ft 431 kts 327°
2026-05-05 19:11 42.57253 10.78714 35976 ft 432 kts 326°
2026-05-05 19:11 42.62337 10.75332 35980 ft 431 kts 326°
2026-05-05 19:12 42.67415 10.71916 35976 ft 431 kts 326°
2026-05-05 19:12 42.72223 10.68664 35978 ft 433 kts 326°
2026-05-05 19:13 42.77217 10.65273 35979 ft 433 kts 326°
2026-05-05 19:13 42.82218 10.61872 35978 ft 433 kts 325°
2026-05-05 19:14 42.87423 10.58322 35974 ft 434 kts 326°
2026-05-05 19:14 42.92408 10.54918 35974 ft 434 kts 326°
2026-05-05 19:15 42.97458 10.51468 35977 ft 431 kts 325°
2026-05-05 19:15 43.02404 10.48115 35978 ft 437 kts 326°
2026-05-05 19:16 43.07258 10.44881 35973 ft 433 kts 326°
2026-05-05 19:16 43.12107 10.41648 35971 ft 437 kts 326°
2026-05-05 19:17 43.17086 10.38325 35971 ft 435 kts 326°
2026-05-05 19:17 43.22208 10.34892 35972 ft 436 kts 325°
2026-05-05 19:18 43.27399 10.31399 35969 ft 437 kts 325°
2026-05-05 19:18 43.32589 10.27902 35970 ft 436 kts 325°
2026-05-05 19:19 43.37729 10.24433 35973 ft 435 kts 325°
2026-05-05 19:19 43.42845 10.20948 35973 ft 435 kts 324°
2026-05-05 19:20 43.47538 10.17433 35970 ft 433 kts 322°
2026-05-05 19:20 43.52178 10.13809 35973 ft 434 kts 322°
2026-05-05 19:21 43.56874 10.10143 35971 ft 435 kts 322°
2026-05-05 19:21 43.61746 10.06375 35966 ft 436 kts 322°
2026-05-05 19:22 43.66597 10.02649 35955 ft 438 kts 322°
2026-05-05 19:22 43.71469 9.98908 35945 ft 437 kts 322°
2026-05-05 19:23 43.76201 9.95283 35948 ft 437 kts 322°
2026-05-05 19:23 43.81004 9.91594 35943 ft 436 kts 322°
2026-05-05 19:24 43.85836 9.87873 35904 ft 439 kts 322°
2026-05-05 19:24 43.88278 9.85988 35630 ft 441 kts 322°
2026-05-05 19:24 43.90735 9.84092 35363 ft 440 kts 322°
2026-05-05 19:25 43.93231 9.82167 35091 ft 438 kts 321°
2026-05-05 19:25 43.95740 9.80230 34819 ft 438 kts 321°
2026-05-05 19:25 43.98292 9.78257 34541 ft 439 kts 321°
2026-05-05 19:25 44.00844 9.76275 34263 ft 445 kts 321°
2026-05-05 19:26 44.03415 9.74277 33961 ft 443 kts 321°
2026-05-05 19:26 44.05927 9.72329 33663 ft 442 kts 321°
2026-05-05 19:26 44.08388 9.70419 33374 ft 441 kts 321°
2026-05-05 19:26 44.10842 9.68511 33087 ft 443 kts 321°
2026-05-05 19:27 44.13350 9.66558 32794 ft 444 kts 321°
2026-05-05 19:27 44.15824 9.64630 32504 ft 446 kts 322°
2026-05-05 19:27 44.18320 9.62682 32218 ft 447 kts 322°
2026-05-05 19:27 44.20864 9.60695 31927 ft 448 kts 322°
2026-05-05 19:28 44.23375 9.58732 31639 ft 447 kts 322°
2026-05-05 19:28 44.25918 9.56746 31350 ft 448 kts 322°
2026-05-05 19:28 44.28480 9.54741 31057 ft 447 kts 322°
2026-05-05 19:28 44.31100 9.52689 30751 ft 448 kts 322°
2026-05-05 19:29 44.33672 9.50672 30459 ft 447 kts 323°
2026-05-05 19:29 44.36264 9.48637 30169 ft 449 kts 323°
2026-05-05 19:29 44.38972 9.46506 29861 ft 451 kts 323°
2026-05-05 19:29 44.41685 9.44369 29557 ft 452 kts 323°
2026-05-05 19:30 44.44396 9.42231 29250 ft 455 kts 323°
2026-05-05 19:30 44.47094 9.40100 28854 ft 456 kts 323°
2026-05-05 19:30 44.49854 9.37918 28393 ft 461 kts 324°
2026-05-05 19:30 44.52520 9.35809 27950 ft 463 kts 324°
2026-05-05 19:31 44.55264 9.33638 27496 ft 462 kts 323°
2026-05-05 19:31 44.58006 9.31469 27039 ft 462 kts 324°
2026-05-05 19:31 44.60773 9.29277 26583 ft 465 kts 324°
2026-05-05 19:31 44.63522 9.27097 26132 ft 464 kts 324°
2026-05-05 19:32 44.66318 9.24873 25636 ft 468 kts 324°
2026-05-05 19:32 44.69081 9.22677 25131 ft 464 kts 324°
2026-05-05 19:32 44.71804 9.20501 24621 ft 457 kts 323°
2026-05-05 19:32 44.74312 9.18159 24126 ft 445 kts 317°
2026-05-05 19:33 44.76463 9.15478 23643 ft 432 kts 308°
2026-05-05 19:33 44.78256 9.12439 23167 ft 421 kts 300°
2026-05-05 19:33 44.79761 9.09222 22683 ft 413 kts 295°
2026-05-05 19:33 44.81145 9.05857 22191 ft 406 kts 294°
2026-05-05 19:34 44.82448 9.02514 21652 ft 394 kts 293°
2026-05-05 19:34 44.83701 8.99268 21166 ft 379 kts 293°
2026-05-05 19:34 44.84917 8.96144 20560 ft 368 kts 293°
2026-05-05 19:35 44.87280 8.90210 19534 ft 345 kts 294°
2026-05-05 19:35 44.88427 8.87383 19088 ft 333 kts 294°
2026-05-05 19:35 44.89528 8.84687 18648 ft 323 kts 294°
2026-05-05 19:35 44.90608 8.82044 18190 ft 314 kts 294°
2026-05-05 19:36 44.91653 8.79486 17710 ft 307 kts 294°
2026-05-05 19:36 44.92692 8.76946 17244 ft 305 kts 295°
2026-05-05 19:36 44.93719 8.74437 16764 ft 306 kts 295°
2026-05-05 19:36 44.94754 8.71909 16279 ft 309 kts 295°
2026-05-05 19:37 44.95800 8.69356 15790 ft 311 kts 295°
2026-05-05 19:37 44.96867 8.66758 15307 ft 312 kts 295°
2026-05-05 19:37 44.97928 8.64175 14796 ft 311 kts 296°
2026-05-05 19:37 44.99014 8.61657 14298 ft 306 kts 301°
2026-05-05 19:38 45.00391 8.59473 13816 ft 307 kts 319°
2026-05-05 19:38 45.02228 8.58157 13338 ft 314 kts 341°
2026-05-05 19:38 45.04281 8.57530 12851 ft 314 kts 347°
2026-05-05 19:38 45.06369 8.57024 12379 ft 313 kts 348°
2026-05-05 19:39 45.08398 8.56531 11920 ft 309 kts 347°
2026-05-05 19:39 45.10411 8.56018 11494 ft 306 kts 347°
2026-05-05 19:39 45.12432 8.55479 11063 ft 307 kts 347°
2026-05-05 19:39 45.14417 8.54937 10623 ft 304 kts 347°
2026-05-05 19:40 45.16391 8.54390 10190 ft 301 kts 347°
2026-05-05 19:40 45.18375 8.53837 9744 ft 303 kts 347°
2026-05-05 19:40 45.20277 8.53306 9331 ft 301 kts 348°
2026-05-05 19:40 45.22201 8.52770 8905 ft 297 kts 348°
2026-05-05 19:41 45.24132 8.52234 8466 ft 291 kts 348°
2026-05-05 19:41 45.26092 8.51688 8030 ft 286 kts 348°
2026-05-05 19:41 45.27942 8.51172 7597 ft 280 kts 349°
2026-05-05 19:41 45.29734 8.50883 7202 ft 275 kts
2026-05-05 19:42 45.31524 8.51392 6792 ft 268 kts 30°
2026-05-05 19:42 45.32886 8.53078 6447 ft 256 kts 59°
2026-05-05 19:42 45.33599 8.55384 6140 ft 247 kts 78°
2026-05-05 19:42 45.33950 8.57727 5947 ft 244 kts 81°
2026-05-05 19:43 45.34260 8.60022 5963 ft 239 kts 82°
2026-05-05 19:43 45.34420 8.62369 5964 ft 240 kts 96°
2026-05-05 19:43 45.33937 8.64572 5956 ft 235 kts 127°
2026-05-05 19:43 45.32801 8.66147 5961 ft 233 kts 149°
2026-05-05 19:44 45.31321 8.67120 5959 ft 233 kts 165°
2026-05-05 19:44 45.29747 8.67616 5941 ft 235 kts 171°
2026-05-05 19:44 45.28107 8.68009 5798 ft 239 kts 171°
2026-05-05 19:44 45.26465 8.68418 5668 ft 235 kts 170°
2026-05-05 19:45 45.24842 8.68847 5540 ft 231 kts 169°
2026-05-05 19:45 45.23152 8.69308 5406 ft 230 kts 169°
2026-05-05 19:45 45.21437 8.69778 5273 ft 231 kts 169°
2026-05-05 19:45 45.19800 8.70332 5134 ft 230 kts 159°
2026-05-05 19:46 45.18408 8.71557 4870 ft 229 kts 136°
2026-05-05 19:46 45.17521 8.73498 4558 ft 228 kts 109°
2026-05-05 19:46 45.17325 8.75760 4325 ft 221 kts 87°
2026-05-05 19:46 45.17665 8.77867 4100 ft 217 kts 65°
2026-05-05 19:47 45.18593 8.79548 3952 ft 216 kts 37°
2026-05-05 19:47 45.19936 8.80467 3965 ft 216 kts 17°
2026-05-05 19:47 45.21428 8.80988 3955 ft 214 kts 13°
2026-05-05 19:47 45.22889 8.81445 3959 ft 211 kts 13°
2026-05-05 19:48 45.24337 8.81915 3966 ft 212 kts 14°
2026-05-05 19:48 45.25822 8.82415 3962 ft 219 kts 12°
2026-05-05 19:48 45.27275 8.82674 3965 ft 218 kts
2026-05-05 19:48 45.28761 8.82587 3961 ft 219 kts 354°
2026-05-05 19:49 45.30232 8.82292 3965 ft 220 kts 351°
2026-05-05 19:49 45.31255 8.82033 3964 ft 219 kts 350°
2026-05-05 19:49 45.33239 8.81495 3965 ft 217 kts 349°
2026-05-05 19:49 45.34759 8.81081 3967 ft 218 kts 349°
2026-05-05 19:50 45.36236 8.80678 3968 ft 219 kts 349°
2026-05-05 19:50 45.37748 8.80267 3968 ft 219 kts 349°
2026-05-05 19:50 45.39207 8.79869 3969 ft 218 kts 349°
2026-05-05 19:50 45.40672 8.79469 3969 ft 216 kts 350°
2026-05-05 19:51 45.42109 8.79077 3969 ft 215 kts 350°
2026-05-05 19:51 45.43565 8.78681 3969 ft 215 kts 350°
2026-05-05 19:51 45.45000 8.78289 3969 ft 214 kts 350°
2026-05-05 19:51 45.46396 8.77910 3780 ft 213 kts 350°
2026-05-05 19:52 45.47807 8.77528 3492 ft 202 kts 350°
2026-05-05 19:52 45.49144 8.77158 3230 ft 187 kts 350°
2026-05-05 19:52 45.50397 8.76813 2990 ft 181 kts 350°
2026-05-05 19:52 45.51641 8.76473 2723 ft 178 kts 350°
2026-05-05 19:53 45.52864 8.76138 2481 ft 176 kts 350°
2026-05-05 19:53 45.54091 8.75801 2250 ft 171 kts 350°
2026-05-05 19:53 45.55263 8.75480 1979 ft 162 kts 350°
2026-05-05 19:53 45.56355 8.75180 1801 ft 147 kts 349°
2026-05-05 19:54 45.57366 8.74888 1621 ft 149 kts 350°
2026-05-05 19:54 45.58422 8.74602 1341 ft 149 kts 350°
2026-05-05 19:54 45.59430 8.74329 1141 ft 146 kts 349°
2026-05-05 19:54 45.60418 8.74038 946 ft 146 kts 349°
2026-05-05 19:55 45.61409 8.73786 803 ft 145 kts 349°
2026-05-05 19:55 45.62390 8.73523 712 ft 119 kts 349°
2026-05-05 19:55 45.62976 8.73365 723 ft 63 kts 349°
2026-05-05 19:55 45.63329 8.73264 731 ft 37 kts 348°
2026-05-05 19:56 45.63570 8.73189 737 ft 29 kts 342°
2026-05-05 19:56 45.63740 8.73051 743 ft 25 kts 320°
2026-05-05 19:56 45.63833 8.72887 746 ft 15 kts 304°
2026-05-05 19:56 45.63850 8.72850 747 ft 0 kts 303°
2026-05-05 19:57 45.63860 8.72827 747 ft 8 kts 303°
2026-05-05 19:57 45.63908 8.72725 750 ft 15 kts 304°
2026-05-05 19:57 45.63932 8.72671 751 ft 4 kts 294°
2026-05-05 19:58 45.63932 8.72614 752 ft 8 kts 247°
2026-05-05 19:58 45.63870 8.72589 750 ft 11 kts 169°
2026-05-05 19:58 45.63788 8.72612 748 ft 13 kts 169°
2026-05-05 19:58 45.63692 8.72638 744 ft 16 kts 169°
2026-05-05 19:59 45.63584 8.72667 741 ft 17 kts 169°
2026-05-05 19:59 45.63491 8.72694 740 ft 10 kts 167°
2026-05-05 19:59 45.63425 8.72687 739 ft 9 kts 219°
2026-05-05 19:59 45.63407 8.72612 741 ft 7 kts 260°
2026-05-05 20:00 45.63398 8.72548 741 ft 6 kts 259°
2026-05-05 20:00 45.63388 8.72475 741 ft 8 kts 259°
2026-05-05 20:00 45.63375 8.72374 743 ft 10 kts 258°
2026-05-05 20:00 45.63361 8.72280 744 ft 9 kts 259°
2026-05-05 20:01 45.63347 8.72171 746 ft 14 kts 259°
2026-05-05 20:01 45.63329 8.72050 749 ft 11 kts 258°
2026-05-05 20:01 45.63325 8.72021 749 ft 0 kts 258°
2026-05-05 20:01 45.63316 8.71983 749 ft 8 kts 218°
2026-05-05 20:02 45.63212 8.71988 747 ft 21 kts 169°
2026-05-05 20:02 45.63075 8.72024 744 ft 19 kts 171°
2026-05-05 20:02 45.63002 8.72005 743 ft 9 kts 255°
2026-05-05 20:02 45.62989 8.71923 743 ft 9 kts 258°
2026-05-05 20:03 45.62978 8.71841 743 ft 8 kts 260°
2026-05-05 20:03 45.62964 8.71769 743 ft 7 kts 236°
2026-05-05 20:03 45.62936 8.71757 743 ft 4 kts 175°
2026-05-05 20:03 45.62909 8.71764 743 ft 3 kts 169°
2026-05-05 20:04 45.62886 8.71767 743 ft 2 kts 176°
2026-05-05 20:04 45.62866 8.71771 743 ft 4 kts 172°
2026-05-05 20:04 45.62841 8.71766 743 ft 4 kts 220°
2026-05-05 20:04 45.62829 8.71729 743 ft 4 kts 256°
2026-05-05 20:05 45.62823 8.71691 743 ft 4 kts 261°
2026-05-05 20:05 45.62821 8.71672 743 ft 0 kts 260°
2026-05-05 20:05 45.62820 8.71659 743 ft 0 kts 259°